Regional Weather Roundup
Issued by NWS

Home | Current Version | Previous Version | Graphics & Text | Print | Product List | Glossary On
Versions: 1 2 3 4 5 6 7 8 9 10 11 12 13 14 15 16 17 18 19 20 21 22 23 24 25 26 27 28
000
ASUS45 KCYS 202110
RWRWY

WYOMING REGIONAL WEATHER ROUNDUP
NATIONAL WEATHER SERVICE CHEYENNE WY
300 PM MDT SUN AUG 20 2017

NOTE:  "FAIR" INDICATES FEW OR NO CLOUDS BELOW 12,000 FEET
WITH NO SIGNIFICANT WEATHER AND/OR OBSTRUCTIONS TO VISIBILITY.

WYZ001-202200-
YELLOWSTONE NATIONAL PARK

CITY           SKY/WX    TMP DP  RH WIND       PRES   REMARKS
LK YELLOWSTONE   N/A     70  23  17 VRB6      30.25S
W YELLOWSTONE  NOT AVBL

$$
WYZ002>013-054>058-071-098>099-202200-
NORTHERN WYOMING

CITY           SKY/WX    TMP DP  RH WIND       PRES   REMARKS
JACKSON        FAIR      80  28  15 W12G24    30.15F
CODY           FAIR      74  43  32 N7        30.06F
GREYBULL       FAIR      84  34  16 VRB6      29.96F
WORLAND        FAIR      84  41  21 N7        29.96F
SHERIDAN       FAIR      86  41  20 NW6       29.96F
BUFFALO        FAIR      89  33  13 N13G18    30.00F
GILLETTE       FAIR      87  42  20 SE20G29   29.96F
HULETT         FAIR      81  46  30 E12       30.02F
NEWCASTLE      FAIR      81  41  24 S20G28    30.03F

$$
WYZ014>020-022>026-101>103-202200-
CENTRAL WYOMING

CITY           SKY/WX    TMP DP  RH WIND       PRES   REMARKS
BIG PINEY      PTSUNNY   80  30  16 NW16G24   30.19F
PINEDALE       MOCLDY    79  27  14 NW18G26   30.19F
DUBOIS         FAIR      79  23  12 NW21G31   30.16S
LANDER           N/A    N/A N/A N/A MISG      30.01F
RIVERTON       FAIR      87  28  12 NW10      30.03F
CASPER         FAIR      87  27  11 NW8G20    30.02F
DOUGLAS        FAIR      84  48  28 SE21G28   30.04F

$$
WYZ021-027>030-104>119-202200-
SOUTHERN WYOMING

CITY           SKY/WX    TMP DP  RH WIND       PRES   REMARKS
EVANSTON       FAIR      80  33  18 W18G25    30.21F
FORT BRIDGER   MOCLDY    81  31  16 NW21      30.24S
ROCK SPRINGS   PTSUNNY   82  28  14 SW13G21   30.17F
RAWLINS        FAIR      84  24  11 S13G18    30.17F
LARAMIE        FAIR      79  26  14 SW9       30.20F
CHEYENNE       FAIR      82  41  23 E10       30.15F
TORRINGTON     FAIR      86  51  29 SE13      30.02F
PINE BLUFFS    FAIR      82  50  32 E9        30.10F

$$




USA.gov is the U.S. government's official web portal to all federal, state and local government web resources and services.